Regional Weather Roundup
Issued by NWS

Home | Current Version | Previous Version | Graphics & Text | Print | Product List | Glossary On
Versions: 1 2 3 4 5 6 7 8 9 10 11 12 13 14 15 16 17 18 19 20 21 22 23 24 25 26 27 28 29 30 31 32 33 34 35 36 37 38 39 40 41 42 43 44 45 46 47 48 49 50
000
ASUS45 KBOU 010807
RWRCO

WEATHER ROUNDUP FOR COLORADO
NATIONAL WEATHER SERVICE DENVER/BOULDER CO
200 AM MDT WED JUN 01 2016

NOTE: "FAIR" INDICATES FEW OR NO CLOUDS BELOW 12000 FEET WITH NO
SIGNIFICANT WEATHER AND/OR OBSTRUCTIONS TO VISIBILITY.

COZ001>005-013-030-031-010900-
...NORTHWEST COLORADO...

CITY           SKY/WX    TMP DP  RH WIND       PRES   REMARKS
CRAIG          FAIR      41  36  82 E3        30.12R
HAYDEN         FAIR      46  32  57 E10       30.13R
MEEKER         FAIR      45  34  65 NE3       30.13R
MOUNT WERNER   NOT AVBL
STEAMBOAT SPGS FAIR      45  33  63 CALM      30.16R
WALDEN         NOT AVBL
$$

COZ006>008-011-010900-
...WEST CENTRAL VALLEYS...

CITY           SKY/WX    TMP DP  RH WIND       PRES   REMARKS
GRAND JUNCTION FAIR      57  30  35 E6        29.99R
MONTROSE       FAIR      52  35  52 S8        30.06S
EAGLE          FAIR      45  32  61 S5        30.17S
RIFLE          FAIR      49  35  58 E5        30.07R
DELTA          FAIR      57  34  41 NE7       30.03R
NUCLA          FAIR      54  32  43 E9        30.08S
$$

COZ017>023-064>068-010900-
...SOUTHWEST COLORADO...

CITY           SKY/WX    TMP DP  RH WIND       PRES   REMARKS
DURANGO        FAIR      51  36  56 E6        30.11R
CORTEZ         FAIR      45  33  63 SE3       30.03R
PAGOSA SPRINGS FAIR      52  33  49 CALM      30.19R
TELLURIDE      FAIR      45  31  58 SE8       30.25F
WOLF CREEK PAS NOT AVBL
$$

COZ009-010-012-014-032>034-037-058>063-010900-
...CENTRAL COLORADO...

CITY           SKY/WX    TMP DP  RH WIND       PRES   REMARKS
ASPEN          FAIR      41  31  67 SW9       30.18S
BUENA VISTA    CLOUDY    50  44  79 CALM      30.24F
COPPER MTN     NOT AVBL
BERTHOUD PASS  HAZE      30  19  64 E24       30.42S VSB<1/4 WCI  16
COTTONWOOD PAS CLOUDY    46  39  76 CALM      30.33S
GUNNISON       FAIR      45  32  61 N9        30.21S
KREMMLING      FAIR      41  32  70 CALM      30.22S
LEADVILLE      FAIR      29  26  89 CALM      30.30F
MONARCH PASS   FOG       36  34  93 NE21G26   30.50S VSB<1/4
SALIDA         FAIR      52  46  80 E7        30.30R
SUNLIGHT       FAIR      41  30  65 NE5       30.36S
WILKERSON PASS SNOW      34  34 100 E8        30.41S VSB<1/4 WCI  27
$$

COZ069>075-010900-
...SAN LUIS VALLEY/SANGRE DE CRISTO MOUNTAINS...

CITY           SKY/WX    TMP DP  RH WIND       PRES   REMARKS
ALAMOSA        FAIR      51  41  68 E18G24    30.18R
LA VETA PASS   LGT RAIN  39  37  93 NE14      30.34S VSB 1/2
SAGUACHE       FAIR      45  34  65 NW9       30.21S
$$

COZ035-036-038>040-010900-
...NORTHERN COLORADO FRONT RANGE...

CITY           SKY/WX    TMP DP  RH WIND       PRES   REMARKS
DENVER INTL AP LGT RAIN  52  49  89 SE12      30.18R
DMNS CITY PARK   N/A     53  51  92 E7G15     30.18S
AURORA         MOCLDY    52  51  99 S9        30.19S
FRONT RANGE AP NOT AVBL
ERIE MUNI ARPT RAIN      53  51  94 NE8       30.19R
BOULDER MUN AP RAIN      50  50 100 N9        30.20R
CENTENNIAL     LGT RAIN  52  48  86 S9        30.20R
BROOMFIELD     RAIN      54  52  94 N5        30.20R
FORT COLLINS   MOCLDY    50  43  76 N8        30.21S
LONGMONT       CLOUDY    54  51  90 N8        30.22R
$$

COZ041-046-047-076>085-087-088-010900-
...PIKES PEAK/PALMER DIVIDE AND SOUTHERN FOOTHILLS...

CITY           SKY/WX    TMP DP  RH WIND       PRES   REMARKS
COLO. SPRINGS  CLOUDY    51  47  86 SE7       30.24R
A. F. ACADEMY  CLOUDY    50  48  93 E3        30.23S
SCHRIEVER AFB  NOT AVBL
ELLICOTT       CLOUDY   N/A N/A N/A E7        30.21R
FALCON         CLOUDY    48  47  97 SE6       30.26S
FORT CARSON    LGT RAIN  52  50  93 NE6       30.21S
LIMON          FAIR      50  49  96 SE3       30.19S
MONUMENT HILL  DRIZZLE   45  45 100 SE7       30.26S
TRINIDAD       LGT RAIN  50  48  93 E8        30.21R
$$

COZ042>045-048>051-090-091-010900-
...NORTHEAST COLORADO...

CITY           SKY/WX    TMP DP  RH WIND       PRES   REMARKS
GREELEY ARPT   CLOUDY    55  43  62 E6        30.20R
AKRON          LGT RAIN  53  45  74 E3        30.19R
BURLINGTON     FAIR      54  49  83 S5        30.14F
WRAY           FAIR      52  45  76 N7        30.15S
STERLING       MOCLDY    52  45  76 NE3       30.17R
HOLYOKE        NOT AVBL
FORT MORGAN    CLOUDY    51  47  84 CALM      30.20R
$$

COZ086-089-092>099-010900-
...SOUTHEAST COLORADO...

CITY           SKY/WX    TMP DP  RH WIND       PRES   REMARKS
PUEBLO         LGT RAIN  54  51  90 S5        30.18S
LA JUNTA       LGT RAIN  54  51  90 E14       30.16F
LAMAR          LGT RAIN  56  53  90 W13       30.12F
SPRINGFIELD      N/A     53  50  89 N12G26    30.14R
$$



USA.gov is the U.S. government's official web portal to all federal, state and local government web resources and services.